Location: ????????
(55.6189°N, 38.3031°E)
Time: 15:42:03
(UTC+00:00)

CZ-4C R/B - Pass Details

Date: 15 November 2019
Orbit: 649 x 1353 km, 63.4° (Epoch: 14 December)

Event Time Altitude Azimuth Distance (km) Brightness Sun altitude
Exits shadow 04:12:40 - 295° (WNW) 2,764 4.2 -6.8°
Reaches altitude 10° 04:13:06 10° 297° (WNW) 2,619 4.1 -6.8°
Maximum altitude 04:19:02 45° 9° (N) 1,399 3.3 -6.0°
Drops below altitude 10° 04:26:04 10° 81° (E) 3,105 6.1 -5.1°
Sets 04:29:12 0° 87° (E) 4,163 7.0 -4.7°
